Weather WX

World > North America > United States > Oregon

Drewsey, Oregon Regional Weather

Lat: 43.80N, Lon: 118.38W
Wx Zone: ORZ061
Feedback

Drewsey, OR Regional Weather

Expires:201906202200;;806008
ASUS46 KPQR 202110
RWROR 

OREGON REGIONAL WEATHER ROUNDUP
NATIONAL WEATHER SERVICE PORTLAND OR
200 PM PDT THU JUN 20 2019

NOTE: "FAIR" INDICATES FEW OR NO CLOUDS BELOW 12,000 FEET WITH
NO SIGNIFICANT WEATHER AND/OR OBSTRUCTIONS TO VISIBILITY.


ORZ029>031-041-044-049-050-061>064-502-503-505>511-202200-
EASTERN OREGON

  
CITY           SKY/WX    TMP DP  RH WIND       PRES   REMARKS
MADRAS         FAIR      61  34  36 NW17      30.08F                  
REDMOND        PTSUNNY   60  32  34 NW8G18    30.06F                  
BEND           FAIR      61  28  29 NW13G21   30.06F                  
PRINEVILLE     PTSUNNY   59  30  33 VRB7G15   30.05F                  
KLAMATH FALLS  FAIR      63  23  21 NW15      30.04F                  
LAKEVIEW       FAIR      61  27  27 N8        30.03F                  
HERMISTON      FAIR      73  38  27 SW15G24   29.94F                  
PENDLETON      PTSUNNY   65  35  33 W16G25    29.96F                  
JOHN DAY       CLOUDY    53  36  52 W10G17    30.03F                  
MEACHAM        CLOUDY    50  37  61 CALM      30.00S                  
LA GRANDE      PTSUNNY   58  35  42 NW18G25   30.00S                  
BAKER CITY     CLOUDY    56  32  40 NW15G21   29.99S                  
BURNS          FAIR      59  26  28 NW15G28   30.01F                  
ROME             N/A     63  18  17 NW22G31   29.98F                  
ONTARIO        FAIR      67  32  27 NW17G25   29.96F                  
$$
  

SKY/WX - Weather  TMP - Temperature  DP - Dew Point  RH - Relative Humidity
WIND - Wind Direction/Speed PRES - Barometric Pressure VSB - Visibility
WCI - Wind Chill Index E13G22 Wind - East Wind 13 mph/Gusts of 22 mph